QPF
0.06 0.04 0.03 0.03 0.02 0.02 0.02 0.02 0.02 0.02 0.03 0.02 0.03 0.03 0.03 0.02 0.03 0.02 0.02 0.03 0.03 0.03 0.02 0.01 0.01 0.01 0.01 0.01 0.01 0.01 0.01 0.01 0.01 0.01 0.01 0.01 0.01 0.01
0.04 0.03 0.02 0.02 0.01 0.01 0.01 0.01 0.02 0.02 0.02 0.02 0.01 0.01 0.02 0.02 0.02 0.02 0.02 0.02 0.02 0.02 0.02 0.02 0.02 0.02 0.01 0.01 0.01 0.01 0.01 0.01 0.01 0.01 0.01 0.01 0.01 0.01
0.03 0.02 0.02 0.01 0.01 0.01 0.01 0.01 0.01 0.01 0.01 0.01 0.01 0.00 0.00 0.01 0.01 0.02 0.02 0.02 0.02 0.02 0.02 0.02 0.01 0.01 0.01 0.01 0.01 0.01 0.01 0.01 0.01 0.01 0.01 0.01 0.00 0.00
0.02 0.02 0.01 0.01 0.01 0.01 0.01 0.01 0.01 0.01 0.01 0.01 0.01 0.01 0.01 0.01 0.01 0.01 0.01 0.01 0.02 0.02 0.02 0.02 0.01 0.01 0.01 0.01 0.01 0.01 0.01 0.00 0.01 0.01 0.01 0.00 0.00 0.00
0.02 0.02 0.01 0.01 0.02 0.01 0.01 0.01 0.01 0.01 0.00 0.01 0.01 0.01 0.01 0.01 0.01 0.01 0.00 0.00 0.00 0.00 0.01 0.01 0.01 0.01 0.01 0.01 0.00 0.00 0.00 0.00 0.00 0.00 0.00 0.00 0.00 0.00
0.01 0.01 0.01 0.01 0.02 0.02 0.02 0.02 0.01 0.01 0.01 0.01 0.01 0.01 0.02 0.01 0.01 0.01 0.01 0.01 0.01 0.00 0.00 0.00 0.00 0.00 0.00 0.00 0.00 0.00 0.00 0.00 0.00 0.00 0.00 0.00 0.00 0.00
0.01 0.01 0.01 0.01 0.01 0.01 0.01 0.02 0.02 0.02 0.02 0.02 0.03 0.03 0.03 0.03 0.02 0.01 0.02 0.02 0.02 0.01 0.02 0.02 0.02 0.03 0.03 0.01 0.00 0.00 0.00 0.00 0.00 0.00 0.00 0.00 0.00 0.00
0.01 0.01 0.01 0.01 0.00 0.00 0.00 0.01 0.01 0.01 0.02 0.02 0.03 0.04 0.04 0.03 0.02 0.02 0.03 0.03 0.04 0.02 0.02 0.03 0.03 0.04 0.05 0.04 0.01 0.00 0.00 0.00 0.00 0.00 0.00 0.00 0.00 0.00
0.02 0.02 0.01 0.01 0.01 0.01 0.01 0.01 0.01 0.00 0.00 0.01 0.02 0.03 0.03 0.03 0.02 0.02 0.03 0.04 0.05 0.04 0.03 0.05 0.04 0.04 0.04 0.01 0.00 0.00 0.00 0.00 0.00 0.00 0.00 0.00 0.00 0.00
0.02 0.02 0.03 0.02 0.00 0.00 0.01 0.04 0.04 0.02 0.01 0.00 0.01 0.02 0.01 0.02 0.01 0.02 0.03 0.05 0.08 0.06 0.03 0.04 0.03 0.03 0.03 0.02 0.00 0.00 0.00 0.00 0.00 0.00 0.00 0.00 0.00 0.00
0.02 0.01 0.01 0.02 0.00 0.00 0.02 0.05 0.06 0.04 0.01 0.00 0.00 0.00 0.00 0.00 0.00 0.01 0.04 0.06 0.07 0.05 0.02 0.03 0.03 0.03 0.04 0.04 0.01 0.00 0.00 0.00 0.00 0.00 0.00 0.00 0.00 0.00
0.04 0.02 0.00 0.00 0.00 0.00 0.02 0.04 0.03 0.02 0.02 0.02 0.02 0.02 0.02 0.01 0.01 0.02 0.05 0.05 0.04 0.04 0.03 0.02 0.03 0.02 0.03 0.03 0.02 0.01 0.01 0.01 0.00 0.00 0.00 0.00 0.00 0.00
0.04 0.03 0.01 0.00 0.00 0.00 0.00 0.01 0.01 0.00 0.02 0.04 0.04 0.04 0.04 0.05 0.04 0.04 0.04 0.04 0.03 0.03 0.02 0.01 0.02 0.02 0.03 0.04 0.02 0.02 0.02 0.02 0.02 0.01 0.01 0.00 0.00 0.00
0.03 0.01 0.00 0.00 0.00 0.00 0.00 0.00 0.00 0.01 0.02 0.03 0.03 0.03 0.04 0.04 0.03 0.03 0.02 0.02 0.03 0.03 0.02 0.02 0.02 0.02 0.02 0.04 0.03 0.02 0.02 0.01 0.02 0.02 0.02 0.01 0.01 0.00
0.01 0.00 0.00 0.00 0.00 0.01 0.00 0.00 0.00 0.02 0.02 0.03 0.03 0.03 0.03 0.03 0.02 0.02 0.02 0.02 0.01 0.01 0.00 0.00 0.02 0.02 0.02 0.02 0.02 0.02 0.01 0.01 0.01 0.02 0.03 0.02 0.02 0.01
0.01 0.00 0.00 0.00 0.00 0.01 0.00 0.00 0.01 0.01 0.01 0.02 0.02 0.02 0.01 0.02 0.01 0.02 0.02 0.02 0.02 0.01 0.00 0.00 0.00 0.01 0.02 0.01 0.01 0.01 0.01 0.02 0.01 0.01 0.02 0.03 0.02 0.01
0.01 0.01 0.02 0.02 0.01 0.01 0.01 0.01 0.01 0.00 0.01 0.01 0.01 0.01 0.01 0.01 0.01 0.01 0.01 0.01 0.01 0.01 0.01 0.01 0.00 0.01 0.01 0.00 0.00 0.01 0.01 0.01 0.02 0.01 0.02 0.03 0.02 0.01
0.00 0.02 0.03 0.03 0.02 0.02 0.02 0.01 0.01 0.00 0.00 0.00 0.00 0.00 0.00 0.00 0.00 0.00 0.00 0.00 0.00 0.00 0.00 0.00 0.00 0.01 0.03 0.02 0.01 0.00 0.00 0.01 0.01 0.01 0.02 0.02 0.02 0.01
0.01 0.02 0.02 0.02 0.02 0.01 0.01 0.00 0.00 0.00 0.00 0.00 0.00 0.00 0.00 0.00 0.00 0.00 0.00 0.00 0.00 0.00 0.00 0.00 0.00 0.00 0.01 0.03 0.02 0.00 0.00 0.00 0.01 0.01 0.01 0.01 0.02 0.01
0.01 0.01 0.01 0.01 0.00 0.00 0.00 0.00 0.00 0.00 0.00 0.00 0.00 0.00 0.00 0.00 0.00 0.00 0.00 0.00 0.00 0.00 0.00 0.00 0.00 0.00 0.00 0.01 0.02 0.01 0.00 0.00 0.00 0.00 0.00 0.01 0.01 0.00
0.01 0.01 0.01 0.00 0.00 0.00 0.00 0.00 0.00 0.00 0.00 0.00 0.00 0.00 0.00 0.00 0.00 0.00 0.00 0.00 0.00 0.00 0.00 0.00 0.00 0.00 0.00 0.01 0.01 0.01 0.00 0.00 0.00 0.00 0.00 0.00 0.00 0.00
0.00 0.00 0.00 0.00 0.00 0.00 0.00 0.00 0.00 0.00 0.00 0.00 0.00 0.00 0.00 0.00 0.00 0.00 0.00 0.00 0.00 0.00 0.00 0.00 0.00 0.00 0.00 0.00 0.00 0.00 0.00 0.00 0.00 0.00 0.00 0.00 0.00 0.00
0.00 0.00 0.00 0.00 0.00 0.00 0.00 0.00 0.00 0.00 0.00 0.00 0.00 0.00 0.00 0.00 0.00 0.00 0.00 0.00 0.00 0.00 0.00 0.00 0.00 0.00 0.00 0.00 0.00 0.00 0.00 0.00 0.00 0.00 0.00 0.00 0.00 0.00
MSLP
1020.99 1021.06 1021.13 1021.19 1021.24 1021.29 1021.35 1021.44 1021.54 1021.68 1021.84 1022.01 1022.17 1022.30 1022.40 1022.44 1022.45 1022.43 1022.40 1022.39 1022.41 1022.47 1022.57 1022.70 1022.83 1022.94 1023.01 1023.01 1022.93 1022.78 1022.56 1022.29 1021.98 1021.64 1021.30 1020.94 1020.58 1020.20
1021.43 1021.50 1021.54 1021.56 1021.56 1021.55 1021.56 1021.59 1021.65 1021.74 1021.86 1021.99 1022.11 1022.20 1022.24 1022.25 1022.21 1022.15 1022.09 1022.06 1022.07 1022.14 1022.26 1022.42 1022.59 1022.75 1022.87 1022.92 1022.90 1022.79 1022.61 1022.36 1022.06 1021.72 1021.36 1020.97 1020.57 1020.15
1021.84 1021.92 1021.95 1021.95 1021.92 1021.87 1021.83 1021.82 1021.84 1021.90 1021.98 1022.08 1022.16 1022.21 1022.21 1022.17 1022.09 1021.99 1021.89 1021.83 1021.81 1021.87 1021.98 1022.14 1022.33 1022.51 1022.67 1022.77 1022.79 1022.73 1022.59 1022.38 1022.11 1021.78 1021.42 1021.03 1020.60 1020.15
1022.23 1022.32 1022.36 1022.35 1022.30 1022.24 1022.18 1022.14 1022.14 1022.17 1022.23 1022.29 1022.34 1022.35 1022.32 1022.24 1022.12 1021.98 1021.84 1021.73 1021.67 1021.68 1021.76 1021.90 1022.08 1022.26 1022.43 1022.55 1022.61 1022.60 1022.50 1022.34 1022.10 1021.81 1021.46 1021.07 1020.64 1020.17
1022.61 1022.71 1022.75 1022.75 1022.71 1022.65 1022.58 1022.54 1022.53 1022.54 1022.58 1022.62 1022.64 1022.62 1022.56 1022.44 1022.28 1022.10 1021.92 1021.76 1021.65 1021.61 1021.64 1021.73 1021.87 1022.03 1022.18 1022.31 1022.39 1022.40 1022.35 1022.22 1022.03 1021.77 1021.45 1021.07 1020.65 1020.18
1022.97 1023.08 1023.13 1023.14 1023.11 1023.06 1023.01 1022.98 1022.97 1022.97 1023.00 1023.01 1023.01 1022.97 1022.88 1022.73 1022.54 1022.33 1022.10 1021.90 1021.73 1021.63 1021.60 1021.63 1021.71 1021.82 1021.95 1022.06 1022.13 1022.16 1022.13 1022.04 1021.87 1021.65 1021.35 1021.00 1020.58 1020.12
1023.31 1023.41 1023.47 1023.50 1023.49 1023.47 1023.44 1023.42 1023.41 1023.41 1023.42 1023.42 1023.39 1023.33 1023.21 1023.04 1022.83 1022.58 1022.33 1022.08 1021.88 1021.72 1021.62 1021.58 1021.60 1021.65 1021.73 1021.80 1021.86 1021.88 1021.86 1021.78 1021.64 1021.44 1021.17 1020.83 1020.44 1019.99
1023.61 1023.70 1023.76 1023.80 1023.82 1023.82 1023.81 1023.80 1023.79 1023.79 1023.78 1023.75 1023.70 1023.61 1023.47 1023.28 1023.05 1022.79 1022.52 1022.25 1022.01 1021.81 1021.66 1021.56 1021.51 1021.51 1021.52 1021.55 1021.58 1021.58 1021.55 1021.47 1021.34 1021.16 1020.90 1020.58 1020.21 1019.78
1023.85 1023.92 1023.99 1024.04 1024.08 1024.10 1024.10 1024.09 1024.08 1024.05 1024.02 1023.96 1023.88 1023.76 1023.60 1023.40 1023.16 1022.90 1022.63 1022.35 1022.09 1021.86 1021.67 1021.52 1021.42 1021.35 1021.32 1021.30 1021.28 1021.26 1021.21 1021.13 1021.00 1020.82 1020.58 1020.28 1019.92 1019.52
1024.03 1024.10 1024.16 1024.22 1024.26 1024.29 1024.29 1024.27 1024.24 1024.18 1024.11 1024.01 1023.89 1023.74 1023.56 1023.36 1023.12 1022.87 1022.60 1022.33 1022.07 1021.83 1021.62 1021.44 1021.29 1021.18 1021.10 1021.04 1020.98 1020.93 1020.87 1020.77 1020.64 1020.47 1020.24 1019.96 1019.63 1019.25
1024.18 1024.24 1024.29 1024.35 1024.39 1024.40 1024.39 1024.35 1024.27 1024.18 1024.05 1023.92 1023.76 1023.58 1023.38 1023.17 1022.95 1022.70 1022.45 1022.20 1021.95 1021.71 1021.49 1021.29 1021.11 1020.97 1020.85 1020.76 1020.68 1020.61 1020.53 1020.43 1020.30 1020.13 1019.93 1019.67 1019.36 1019.03
1024.33 1024.37 1024.41 1024.45 1024.47 1024.46 1024.42 1024.34 1024.22 1024.07 1023.90 1023.72 1023.52 1023.31 1023.10 1022.89 1022.67 1022.45 1022.21 1021.98 1021.74 1021.51 1021.28 1021.08 1020.89 1020.72 1020.59 1020.47 1020.38 1020.29 1020.21 1020.11 1020.00 1019.84 1019.66 1019.43 1019.17 1018.87
1024.50 1024.52 1024.54 1024.55 1024.54 1024.49 1024.41 1024.28 1024.11 1023.91 1023.70 1023.47 1023.24 1023.01 1022.79 1022.57 1022.36 1022.15 1021.93 1021.71 1021.48 1021.26 1021.04 1020.82 1020.63 1020.45 1020.31 1020.18 1020.08 1020.00 1019.92 1019.83 1019.73 1019.61 1019.45 1019.26 1019.04 1018.78
1024.70 1024.69 1024.68 1024.65 1024.59 1024.50 1024.36 1024.19 1023.98 1023.74 1023.48 1023.23 1022.97 1022.73 1022.50 1022.28 1022.07 1021.86 1021.66 1021.44 1021.22 1020.99 1020.77 1020.55 1020.35 1020.17 1020.02 1019.89 1019.79 1019.72 1019.65 1019.58 1019.50 1019.40 1019.28 1019.13 1018.95 1018.75
1024.90 1024.85 1024.79 1024.71 1024.61 1024.47 1024.30 1024.08 1023.84 1023.58 1023.30 1023.02 1022.76 1022.51 1022.27 1022.05 1021.84 1021.64 1021.43 1021.21 1020.98 1020.74 1020.51 1020.28 1020.07 1019.89 1019.73 1019.60 1019.51 1019.44 1019.38 1019.33 1019.27 1019.20 1019.11 1019.00 1018.86 1018.70
1025.06 1024.95 1024.84 1024.72 1024.57 1024.40 1024.19 1023.96 1023.70 1023.43 1023.15 1022.88 1022.62 1022.37 1022.14 1021.92 1021.70 1021.48 1021.26 1021.02 1020.77 1020.52 1020.27 1020.03 1019.81 1019.61 1019.45 1019.32 1019.22 1019.15 1019.10 1019.06 1019.01 1018.96 1018.90 1018.81 1018.72 1018.60
1025.10 1024.95 1024.79 1024.62 1024.44 1024.25 1024.04 1023.81 1023.56 1023.31 1023.05 1022.80 1022.55 1022.31 1022.08 1021.86 1021.63 1021.39 1021.15 1020.89 1020.61 1020.34 1020.06 1019.80 1019.56 1019.35 1019.17 1019.03 1018.92 1018.84 1018.78 1018.74 1018.69 1018.65 1018.59 1018.53 1018.46 1018.37
1024.99 1024.79 1024.59 1024.41 1024.22 1024.03 1023.84 1023.64 1023.42 1023.21 1022.99 1022.77 1022.54 1022.32 1022.09 1021.86 1021.61 1021.35 1021.08 1020.79 1020.48 1020.18 1019.88 1019.59 1019.33 1019.10 1018.90 1018.74 1018.61 1018.51 1018.43 1018.36 1018.30 1018.24 1018.18 1018.12 1018.06 1017.99
1024.72 1024.49 1024.28 1024.09 1023.92 1023.77 1023.62 1023.47 1023.31 1023.15 1022.97 1022.79 1022.59 1022.37 1022.14 1021.89 1021.63 1021.34 1021.03 1020.70 1020.37 1020.04 1019.72 1019.41 1019.12 1018.87 1018.65 1018.46 1018.30 1018.16 1018.04 1017.93 1017.84 1017.75 1017.67 1017.60 1017.53 1017.48
1024.33 1024.10 1023.90 1023.75 1023.62 1023.52 1023.43 1023.35 1023.25 1023.15 1023.02 1022.87 1022.68 1022.47 1022.23 1021.95 1021.65 1021.33 1020.98 1020.63 1020.27 1019.91 1019.57 1019.25 1018.95 1018.67 1018.42 1018.20 1018.00 1017.81 1017.65 1017.49 1017.35 1017.22 1017.10 1017.01 1016.93 1016.87
1023.90 1023.70 1023.54 1023.44 1023.38 1023.35 1023.34 1023.33 1023.30 1023.25 1023.16 1023.02 1022.84 1022.61 1022.33 1022.02 1021.68 1021.31 1020.93 1020.55 1020.17 1019.80 1019.45 1019.12 1018.80 1018.51 1018.24 1017.98 1017.74 1017.51 1017.28 1017.07 1016.88 1016.70 1016.54 1016.41 1016.31 1016.24
1023.52 1023.37 1023.29 1023.26 1023.28 1023.34 1023.40 1023.46 1023.49 1023.47 1023.40 1023.26 1023.06 1022.79 1022.47 1022.10 1021.71 1021.30 1020.89 1020.48 1020.08 1019.71 1019.35 1019.02 1018.71 1018.41 1018.11 1017.83 1017.55 1017.27 1017.00 1016.73 1016.48 1016.26 1016.06 1015.89 1015.76 1015.67
1023.27 1023.20 1023.20 1023.26 1023.37 1023.50 1023.64 1023.75 1023.82 1023.82 1023.74 1023.58 1023.33 1023.01 1022.62 1022.20 1021.75 1021.29 1020.84 1020.41 1020.01 1019.63 1019.29 1018.96 1018.66 1018.36 1018.06 1017.76 1017.45 1017.13 1016.81 1016.50 1016.21 1015.94 1015.70 1015.50 1015.35 1015.22
Thickness
5621 5621 5620 5619 5620 5620 5618 5616 5610 5605 5600 5597 5595 5591 5588 5585 5582 5580 5577 5574 5570 5566 5562 5559 5555 5551 5548 5544 5542 5539 5535 5533 5530 5528 5526 5524 5522 5520
5608 5607 5606 5606 5607 5607 5607 5606 5604 5599 5591 5588 5584 5580 5577 5575 5572 5570 5568 5565 5561 5556 5552 5548 5544 5540 5536 5533 5530 5526 5523 5520 5518 5515 5513 5511 5510 5508
5596 5595 5593 5593 5594 5594 5594 5592 5589 5587 5581 5576 5574 5570 5568 5565 5562 5561 5559 5556 5551 5547 5542 5538 5534 5529 5525 5521 5518 5515 5512 5509 5507 5504 5502 5500 5498 5497
5583 5583 5582 5582 5581 5581 5580 5578 5576 5574 5570 5565 5563 5560 5558 5556 5553 5552 5550 5548 5544 5539 5534 5529 5525 5520 5516 5512 5508 5505 5502 5499 5497 5494 5492 5490 5488 5486
5572 5571 5570 5569 5568 5568 5568 5566 5565 5563 5560 5556 5553 5551 5549 5547 5545 5543 5542 5539 5536 5532 5526 5521 5517 5512 5507 5503 5499 5496 5493 5491 5489 5486 5483 5481 5479 5477
5561 5560 5558 5557 5556 5556 5555 5554 5552 5550 5549 5546 5543 5541 5538 5537 5535 5532 5530 5528 5527 5524 5520 5516 5512 5506 5501 5497 5493 5489 5486 5484 5481 5479 5476 5474 5471 5469
5551 5549 5547 5546 5544 5544 5543 5540 5539 5538 5536 5534 5532 5530 5527 5525 5524 5523 5520 5519 5518 5516 5513 5510 5507 5501 5496 5492 5488 5484 5481 5477 5475 5472 5470 5468 5465 5463
5541 5540 5538 5537 5535 5533 5531 5530 5529 5527 5524 5523 5522 5519 5517 5516 5515 5514 5512 5509 5507 5508 5506 5504 5502 5498 5494 5489 5485 5480 5477 5473 5470 5467 5465 5462 5460 5458
5534 5532 5532 5529 5526 5524 5523 5522 5520 5518 5516 5513 5512 5510 5509 5508 5507 5506 5504 5502 5501 5502 5501 5498 5497 5494 5491 5487 5482 5478 5474 5470 5467 5463 5461 5458 5456 5454
5525 5523 5521 5518 5515 5514 5515 5515 5514 5512 5510 5507 5506 5505 5504 5502 5500 5499 5499 5499 5500 5499 5497 5493 5493 5491 5489 5484 5480 5476 5472 5468 5464 5461 5458 5455 5453 5451
5516 5513 5511 5508 5505 5505 5507 5507 5506 5504 5504 5502 5501 5500 5499 5497 5495 5494 5494 5494 5493 5494 5493 5491 5489 5488 5486 5483 5480 5476 5471 5467 5463 5460 5456 5453 5451 5449
5506 5503 5500 5499 5497 5497 5498 5498 5497 5496 5496 5497 5497 5497 5496 5495 5493 5490 5490 5489 5489 5489 5489 5488 5486 5484 5481 5481 5479 5476 5472 5468 5464 5460 5456 5453 5449 5446
5499 5496 5493 5491 5491 5491 5490 5490 5489 5488 5490 5492 5494 5495 5494 5493 5491 5490 5490 5489 5487 5485 5486 5485 5482 5481 5478 5477 5477 5476 5473 5470 5466 5462 5458 5454 5450 5445
5491 5490 5487 5486 5486 5485 5486 5485 5485 5485 5488 5490 5491 5490 5489 5489 5489 5489 5489 5489 5488 5487 5486 5484 5481 5479 5477 5476 5475 5475 5474 5471 5468 5464 5460 5456 5451 5447
5484 5482 5482 5482 5481 5482 5481 5482 5481 5483 5484 5485 5485 5485 5486 5487 5488 5488 5488 5488 5489 5489 5488 5486 5484 5482 5479 5477 5476 5475 5473 5471 5469 5465 5462 5458 5453 5449
5478 5479 5479 5479 5478 5478 5479 5480 5479 5480 5480 5480 5481 5483 5484 5485 5486 5486 5486 5487 5487 5487 5488 5487 5486 5484 5481 5480 5478 5476 5475 5472 5469 5467 5464 5460 5456 5452
5472 5476 5477 5478 5479 5478 5478 5478 5478 5478 5477 5477 5478 5479 5481 5482 5483 5485 5485 5486 5485 5485 5486 5488 5488 5486 5485 5482 5479 5477 5475 5473 5471 5469 5465 5462 5459 5455
5469 5473 5475 5475 5475 5475 5474 5474 5474 5473 5473 5474 5475 5476 5477 5479 5481 5483 5484 5484 5484 5485 5486 5488 5487 5486 5484 5483 5481 5478 5476 5474 5473 5471 5468 5464 5461 5457
5468 5472 5473 5472 5471 5471 5471 5470 5470 5470 5470 5471 5473 5474 5476 5478 5479 5481 5483 5483 5484 5485 5487 5488 5488 5485 5482 5481 5482 5480 5477 5476 5474 5472 5470 5468 5464 5461
5470 5471 5470 5469 5469 5468 5468 5468 5468 5468 5469 5469 5471 5473 5474 5476 5478 5480 5482 5483 5484 5486 5488 5489 5488 5487 5484 5483 5483 5484 5482 5479 5477 5474 5472 5471 5468 5463
5470 5469 5468 5467 5467 5466 5466 5466 5467 5467 5468 5468 5470 5472 5474 5475 5478 5480 5482 5484 5485 5487 5488 5489 5490 5491 5490 5489 5487 5487 5486 5484 5481 5477 5474 5471 5469 5465
5468 5467 5467 5466 5465 5465 5465 5466 5466 5466 5467 5468 5470 5471 5473 5476 5478 5480 5483 5485 5486 5488 5489 5491 5493 5494 5493 5492 5490 5490 5489 5488 5486 5482 5478 5475 5470 5467
5467 5466 5466 5466 5465 5465 5464 5464 5465 5466 5466 5467 5468 5470 5473 5475 5478 5481 5484 5486 5488 5489 5490 5491 5493 5494 5495 5494 5493 5492 5492 5490 5488 5484 5482 5481 5477 5473